Weather History for Atlantic City, NJ

Change the Weather History Date:

Saturday, June 22, 2013

  Actual Average Record
Temperature  
Mean Temperature 67 °F 73 °F  
Max Temperature 81 °F 83 °F 100 °F (1988)
Min Temperature 52 °F 63 °F 43 °F (1992)
Degree Days  
Heating Degree Days 0 0  
Month to date heating degree days 8 24  
Since 1 June heating degree days 8 24  
Since 1 July heating degree days 4838 4902  
Cooling Degree Days 2 8  
Month to date cooling degree days 107 129  
Year to date cooling degree days 201 193  
Since 1 June cooling degree days 107 129  
Growing Degree Days 16 (Base 50)    
Moisture  
Dew Point 57 °F    
Average Humidity 73    
Maximum Humidity 100    
Minimum Humidity 45    
Precipitation  
Precipitation 0.00 in 0.09 in 1.76 in (1972)
Month to date precipitation 7.19 2.32  
Year to date precipitation 24.75 19.60  
Snow  
Snow 0.00 in 0.00 in 0.00 in (1903)
Month to date snowfall 0.0 0.0  
Since 1 June snowfall 0.0 0.0  
Since 1 July snowfall 14.6 16.5  
Snow Depth 0.00 in    
Sea Level Pressure  
Sea Level Pressure 30.25 in    
Wind  
Wind Speed 4 mph (SSE)    
Max Wind Speed 14 mph    
Max Gust Speed 18 mph    
Visibility 8 miles    
Events Fog    
T = Trace of Precipitation, MM = Missing Value Source: NWS Daily Summary

Daily Weather History Graph

Daily Weather History Graph

Search for Another Location

Airport:

Trip Planner

Search our weather history database for the weather conditions in past years. The results will help you decide how hot, cold, wet, or windy it might be!

Date:

Astronomy

Jun. 22, 2013 Rise Set
Actual Time 5:31 AM EDT 8:29 PM EDT
Civil Twilight 4:59 AM EDT 9:01 PM EDT
Nautical Twilight 4:18 AM EDT 9:42 PM EDT
Astronomical Twilight 3:30 AM EDT 10:30 PM EDT
Moon 7:41 PM EDT (6/22) 4:41 AM EDT (6/22)
Length of Visible Light 16h 02m
Length of Day
14h 57m
Waxing Gibbous, 99% of the Moon is Illuminated
Jun 22
Waxing Gibbous
Jun 23
Full
Jun 30
Last Quarter
Jul 8
New
Jul 15
First Quarter

Hourly Weather History & Observations

Time (EDT) Temp. Heat Index Dew Point Humidity Pressure Visibility Wind Dir Wind Speed Gust Speed Precip Events Conditions
12:54 AM 63.0 °F - 61.0 °F 93% 30.28 in 10.0 mi South 3.5 mph - N/A   Clear
1:54 AM 57.9 °F - 55.9 °F 93% 30.28 in 10.0 mi Calm Calm - N/A   Clear
2:54 AM 55.0 °F - 54.0 °F 96% 30.27 in 2.0 mi Calm Calm - N/A   Partly Cloudy
3:09 AM 55.0 °F - 55.0 °F 100% 30.27 in 10.0 mi Calm Calm - N/A   Clear
3:54 AM 55.0 °F - 54.0 °F 96% 30.27 in 4.0 mi Calm Calm - N/A   Clear
4:06 AM 54.0 °F - 54.0 °F 100% 30.26 in 2.5 mi Calm Calm - N/A   Partly Cloudy
4:14 AM 53.1 °F - 53.1 °F 100% 30.26 in 1.8 mi Calm Calm - N/A   Partly Cloudy
4:17 AM 53.1 °F - 53.1 °F 100% 30.26 in 3.0 mi Calm Calm - N/A   Partly Cloudy
4:54 AM 53.1 °F - 52.0 °F 96% 30.28 in 10.0 mi NW 3.5 mph - N/A   Clear
5:30 AM 53.1 °F - 52.0 °F 96% 30.28 in 10.0 mi Calm Calm - N/A   Partly Cloudy
5:49 AM 53.6 °F - 53.6 °F 100% 30.28 in 2.5 mi Calm Calm - N/A   Mostly Cloudy
5:51 AM 53.6 °F - 53.6 °F 100% 30.28 in 0.5 mi Calm Calm - N/A Fog Fog
5:54 AM 53.1 °F - 53.1 °F 100% 30.28 in 0.2 mi Calm Calm - N/A Fog Fog
6:01 AM 53.1 °F - 53.1 °F 100% 30.28 in 0.2 mi Calm Calm - N/A Fog Fog
6:13 AM 54.0 °F - 54.0 °F 100% 30.28 in 0.5 mi Calm Calm - N/A Fog Fog
6:19 AM 54.0 °F - 54.0 °F 100% 30.28 in 1.5 mi Calm Calm - N/A   Overcast
6:25 AM 55.0 °F - 55.0 °F 100% 30.28 in 3.0 mi Calm Calm - N/A   Mostly Cloudy
6:37 AM 55.9 °F - 55.9 °F 100% 30.28 in 10.0 mi Calm Calm - N/A   Scattered Clouds
6:54 AM 55.9 °F - 55.9 °F 100% 30.28 in 5.0 mi Calm Calm - N/A   Clear
7:54 AM 66.0 °F - 63.0 °F 90% 30.27 in 10.0 mi South 4.6 mph - N/A   Clear
8:54 AM 70.0 °F - 60.1 °F 71% 30.27 in 10.0 mi Calm Calm - N/A   Clear
9:54 AM 75.0 °F - 55.9 °F 51% 30.27 in 10.0 mi Calm Calm - N/A   Clear
10:54 AM 77.0 °F - 57.0 °F 50% 30.28 in 10.0 mi NNW 4.6 mph - N/A   Clear
11:54 AM 81.0 °F 81.0 °F 57.0 °F 44% 30.28 in 10.0 mi Calm Calm - N/A   Clear
12:54 PM 79.0 °F - 63.0 °F 58% 30.27 in 10.0 mi SE 9.2 mph - N/A   Clear
1:54 PM 79.0 °F - 62.1 °F 56% 30.26 in 10.0 mi ESE 8.1 mph - N/A   Clear
2:54 PM 80.1 °F 81.1 °F 61.0 °F 52% 30.25 in 10.0 mi SSE 11.5 mph - N/A   Clear
3:54 PM 75.9 °F - 60.1 °F 58% 30.23 in 10.0 mi SSE 10.4 mph - N/A   Clear
4:54 PM 75.9 °F - 57.9 °F 54% 30.21 in 10.0 mi SSE 11.5 mph - N/A   Clear
5:54 PM 73.9 °F - 59.0 °F 59% 30.19 in 10.0 mi South 10.4 mph - N/A   Clear
6:54 PM 72.0 °F - 57.9 °F 61% 30.18 in 10.0 mi SSE 6.9 mph - N/A   Clear
7:54 PM 71.1 °F - 55.9 °F 59% 30.17 in 10.0 mi South 6.9 mph - N/A   Clear
8:54 PM 69.1 °F - 55.0 °F 61% 30.19 in 10.0 mi South 5.8 mph - N/A   Clear
9:54 PM 69.1 °F - 55.0 °F 61% 30.20 in 10.0 mi South 3.5 mph - N/A   Clear
10:54 PM 68.0 °F - 55.0 °F 63% 30.21 in 10.0 mi South 3.5 mph - N/A   Clear
11:31 PM 66.0 °F - 57.9 °F 75% 30.21 in 10.0 mi Calm Calm - N/A   Partly Cloudy
11:54 PM 64.0 °F - 57.0 °F 78% 30.21 in 10.0 mi Calm Calm - N/A   Clear